Home   Weather   Zagreb   Past weeks
Flag for Croatia

Past Weather in Zagreb, Croatia — Yesterday and Last 2 Weeks

Now
73 °F

Passing clouds.


Feels Like: 77 °F
Forecast: 67 / 57 °F
Wind: 8 mph from South

Location: Zagreb / Pleso

Current Time: May 26, 2019 at 7:46:35 pm

Latest Report: May 26, 2019 at 7:00 pm


Visibility: N/A

Pressure: 29.92 "Hg

Humidity: 57%

Dew Point: 57 °F

Location of ZagrebLocation

Past Weather in Zagreb — Graph

°F

Zagreb Temperature Yesterday

Maximum temperature yesterday: 79 °F (at 4:00 pm)
Minimum temperature yesterday: 50 °F (at 3:30 am)
Average temperature yesterday: 65 °F

High & Low Weather Summary for the Past Weeks

 TemperatureHumidityPressure
High79 °F (May 25, 4:00 pm)100% (May 15, 7:00 pm)30.24 "Hg (May 15, 7:00 pm)
Low43 °F (May 15, 2:00 am)34% (May 25, 4:00 pm)29.62 "Hg (May 19, 6:30 pm)
Average57 °F76%29.92 "Hg
* Reported May 11 6:00 pm — May 26 6:30 pm, Zagreb. Weather by CustomWeather, © 2019

Note: Actual official high and low records may vary slightly from our data, if they occured in-between our weather recording intervals... More about our weather records

Advertising

Zagreb Weather History for the Previous 24 Hours

Scroll right to see more
 ConditionsComfort  
Time TempWeatherWind HumidityBarometerVisibility
6:30 pm
Sun, May 26
75 °FSunny.5 mph47%29.92 "Hg10 mi
6:00 pm75 °FPassing clouds.6 mph44%29.92 "HgN/A
5:30 pm77 °FPassing clouds.3 mph44%29.92 "HgN/A
5:00 pm77 °FPassing clouds.6 mph44%29.92 "HgN/A
4:30 pm77 °FPassing clouds.5 mph47%29.92 "HgN/A
4:00 pm77 °FPassing clouds.5 mph44%29.92 "HgN/A
3:30 pm77 °FPassing clouds.7 mph42%29.92 "HgN/A
3:00 pm77 °FPassing clouds.12 mph42%29.92 "HgN/A
2:30 pm77 °FSunny.6 mph44%29.92 "Hg10 mi
2:00 pm77 °FSunny.5 mph44%29.95 "Hg10 mi
1:30 pm77 °FPassing clouds.5 mph54%29.95 "HgN/A
1:00 pm75 °FSunny.2 mph57%29.95 "Hg10 mi
12:30 pm75 °FSunny.3 mph54%29.98 "Hg10 mi
12:00 pm73 °FSunny.2 mph57%29.98 "Hg10 mi
11:30 am73 °FSunny.1 mph53%29.98 "Hg10 mi
11:00 am72 °FSunny.2 mph57%29.98 "Hg10 mi
10:30 am72 °FSunny.1 mph61%29.98 "Hg10 mi
10:00 am70 °FSunny.No wind64%29.98 "Hg10 mi
9:30 am68 °FSunny.No wind69%29.98 "Hg10 mi
9:00 am68 °FSunny.No wind69%29.98 "Hg10 mi
8:30 am66 °FSunny.No wind73%29.98 "Hg10 mi
8:00 am64 °FSunny.No wind78%29.98 "Hg10 mi
7:30 am63 °FSunny.2 mph83%29.98 "Hg10 mi
7:00 am61 °FSunny.1 mph83%29.95 "Hg10 mi
6:30 am61 °FSunny.1 mph83%29.95 "Hg10 mi
6:00 am59 °FSunny.No wind88%29.95 "Hg10 mi
5:30 am59 °FSunny.No wind88%29.95 "Hg10 mi
5:00 am59 °FClear.2 mph88%29.95 "Hg10 mi
4:30 am59 °FClear.No wind88%29.95 "Hg10 mi
4:00 am59 °FPassing clouds.3 mph88%29.95 "HgN/A
3:30 am57 °FClear.2 mph94%29.95 "Hg10 mi
3:00 am57 °FClear.1 mph88%29.95 "Hg10 mi
2:30 am57 °FClear.5 mph88%29.95 "Hg10 mi
2:00 am57 °FClear.6 mph94%29.95 "Hg10 mi
1:30 am59 °FClear.7 mph88%29.95 "Hg10 mi
1:00 am59 °FClear.5 mph88%29.98 "Hg10 mi
12:30 am59 °FClear.6 mph88%29.98 "Hg10 mi
12:00 am59 °FPassing clouds.6 mph88%29.98 "HgN/A
11:30 pm
Sat, May 25
61 °FClear.3 mph83%29.95 "Hg10 mi
11:00 pm61 °FClear.6 mph83%29.95 "Hg10 mi
10:30 pm63 °FClear.2 mph77%29.95 "Hg10 mi
10:00 pm63 °FPassing clouds.3 mph77%29.95 "HgN/A
9:30 pm66 °FPassing clouds.3 mph68%29.92 "HgN/A
9:00 pm70 °FClear.2 mph57%29.92 "Hg10 mi
8:30 pm70 °FPassing clouds.6 mph57%29.92 "HgN/A
8:00 pm70 °FSunny.5 mph60%29.92 "Hg10 mi
7:30 pm73 °FSunny.5 mph57%29.92 "Hg10 mi
7:00 pm73 °FSunny.5 mph53%29.92 "Hg10 mi
Weather by CustomWeather, © 2019

See weather overview